This demonstration page uses our WeatherBlox Daily Observations layout. Learn more.

Left ArrowRight Arrow

Hourly Observations for May 5, 2021

Temp ( °F °C ) Dew Point ( °F °C ) Humidity (%) Winds ( mph kmh ) Pressure ( in mb ) Visibility ( mi km ) Precip ( " mm )
12:43 am 00:43 Mostly Clear 63 17.2 62 16.7 97 97 SW 8 13 29.89 1012 10 16 0.00 0.00
12:50 am 00:50 Partly Cloudy 63 17 63 17 100 100 SW 7 11 29.89 1012 10 16 0.00 0.00
12:53 am 00:53 Partly Cloudy 63 17.2 62 16.7 97 97 SW 7 11 29.87 1012 10 16 0.00 0.00
1:28 am 01:28 Mostly Cloudy 63 17.2 61 16.1 93 93 SSW 6 9 29.89 1012 10 16 0.00 0.00
1:53 am 01:53 Cloudy 63 17.2 62 16.7 97 97 SW 7 11 29.87 1012 10 16 0.00 0.00
2:53 am 02:53 Mostly Cloudy 63 17.2 62 16.7 97 97 SSW 3 6 29.85 1011 10 16 0.00 0.00
3:18 am 03:18 Partly Cloudy 62 16.7 61 16.1 96 96 Calm 29.87 1011 10 16 0.00 0.00
3:38 am 03:38 Mostly Cloudy 62 16.7 61 16.1 96 96 SW 5 7 29.87 1011 10 16 0.00 0.00
3:53 am 03:53 Mostly Clear 62 16.7 61 16.1 96 96 SW 6 9 29.86 1011 10 16 0.00 0.00
4:53 am 04:53 Mostly Clear 62 16.7 61 16.1 96 96 WSW 5 7 29.88 1012 10 16 0.00 0.00
5:29 am 05:29 Mostly Cloudy 62 16.7 61 16.1 96 96 WSW 8 13 29.90 1012 10 16 0.00 0.00
5:53 am 05:53 Cloudy 63 17.2 61 16.1 93 93 SW 9 15 29.89 1012 10 16 0.00 0.00
6:44 am 06:44 Cloudy 63 17.2 61 16.1 93 93 SW 9 15 29.93 1013 10 16 0.00 0.00
6:53 am 06:53 Cloudy 64 17.8 61 16.1 90 90 SW 7 11 29.93 1013 10 16 0.00 0.00
7:05 am 07:05 Cloudy 64 17.8 61 16.1 90 90 WSW 8 13 29.94 1014 10 16 0.00 0.00
7:13 am 07:13 Cloudy 64 17.8 61 16.1 90 90 WSW 8 13 29.95 1014 10 16 0.00 0.00
7:53 am 07:53 Cloudy 65 18.3 61 16.1 87 87 WSW 6 9 29.96 1014 10 16 0.00 0.00
8:53 am 08:53 Cloudy 66 18.9 61 16.1 84 84 W 9 15 29.96 1015 10 16 0.00 0.00
9:53 am 09:53 Cloudy 68 20 61 16.1 78 78 W 12 19 29.96 1015 10 16 0.00 0.00
10:53 am 10:53 Cloudy 69 20.6 60 15.6 73 73 WNW 14 22 29.97 1015 10 16 0.00 0.00
11:53 am 11:53 Cloudy 69 20.6 62 16.7 78 78 WNW 10 17 29.99 1016 10 16 0.00 0.00
12:53 pm 12:53 Cloudy 71 21.7 62 16.7 73 73 WNW 9 15 29.99 1016 10 16 0.00 0.00
1:00 pm 13:00 Cloudy 72 22.2 62 16.7 71 71 W 13 20 29.98 1015 10 16 0.00 0.00
1:53 pm 13:53 Mostly Cloudy 73 22.8 62 16.7 69 69 SW 10 17 29.99 1016 10 16 0.00 0.00
2:02 pm 14:02 Mostly Cloudy 74 23.3 62 16.7 67 67 W 9 15 29.98 1015 10 16 0.00 0.00
2:30 pm 14:30 Mostly Cloudy 74 23.3 62 16.7 67 67 VRB 7 11 29.97 1015 10 16 0.00 0.00
2:53 pm 14:53 Mostly Cloudy 75 23.9 61 16.1 62 62 W 9 15 29.98 1015 10 16 0.00 0.00
3:53 pm 15:53 Mostly Cloudy 75 23.9 60 15.6 60 60 W 12 19 29.97 1015 10 16 0.00 0.00
4:53 pm 16:53 Partly Cloudy 76 24.4 57 13.9 52 52 W 10 17 29.96 1015 10 16 0.00 0.00
5:53 pm 17:53 Mostly Cloudy 74 23.3 59 15 60 60 WNW 13 20 29.97 1015 10 16 0.00 0.00
6:53 pm 18:53 Mostly Cloudy 73 22.8 58 14.4 59 59 WNW 13 20 29.98 1015 10 16 0.00 0.00
7:53 pm 19:53 Partly Cloudy 69 20.6 57 13.9 66 66 NNW 9 15 29.99 1016 10 16 0.00 0.00
8:53 pm 20:53 Clear 66 18.9 55 12.8 68 68 Calm 30.01 1016 10 16 0.00 0.00
9:53 pm 21:53 Clear 64 17.8 56 13.3 75 75 Calm 30.02 1017 10 16 0.00 0.00
10:53 pm 22:53 Clear 63 17.2 55 12.8 76 76 NNW 8 13 30.03 1017 10 16 0.00 0.00
11:53 pm 23:53 Clear 61 16.1 51 10.6 70 70 NNW 7 11 30.04 1017 10 16 0.00 0.00

Powered by AerisWeather